Airfield :
LOGIN :

Register | Disclaimer

   EN    FR    IT 

 










Legend :    VFR   Marginal VFR   IFR   Intensive IFR   Very Intensive IFR
Visi :
Ceiling :
>= 8 km
>= 3000ft
5 to 8 km
1000 to 3000 ft
1500m to 5 km
500 to 1000 ft
800 to 1500m
200 to 500 ft
< 800m
< 200 ft
Symbols :   Thunderstorms  Fog  Heavy snow  Heavy precipitations  Wind > 20 kt
SIGMETs :     Misc.  Thunderstorms  Icing  Turbulence  Mountain Waves  Volcanic Ashes






- Airport Elevation : 158 ft
- IATA code : QAR


EHDL - Deelen Airbase

CURRENT METAR :
  • 080955Z AUTO VRB01KT 9999 OVC350 22/07 Q1025 BLU

EXPIRED METARs :
  • 080925Z AUTO VRB02KT 9999 OVC260 20/08 Q1025 BLU
  • 080855Z AUTO VRB03KT 9999 OVC250 19/08 Q1025 BLU
  • 080825Z AUTO 16004KT 080V230 9999 OVC250 18/08 Q1025 BLU
  • 080755Z AUTO 16004KT 100V200 9999 OVC250 17/09 Q1025 BLU
  • 080725Z AUTO 13003KT 090V200 9999 OVC250 15/09 Q1026 BLU

Expired Forecast.



MET'MAP, your aeronautical weather chart ! - Copyright ORBIFLY December 2007 - Disclaimer

ORBIFLY MET'MAP TEAM :

Programming & Development : Alexandra Zaïnal
Concept & original design : Baudouin d'Aumeries
Assistance for programming : Marc-Olivier Méhu
Technical & hardware support : Manuel Goepfert

Contact : metmap@orbifly.com




SOURCES & CREDITS :

   NOAA